Weather Service Report


732 
ASUS41 KCLE 261010
RWRCLE
OHIO REGIONAL WEATHER ROUNDUP
NATIONAL WEATHER SERVICE WILMINGTON, OH
500 AM EST MON JAN 26 2015

NOTE: "FAIR" INDICATES FEW OR NO CLOUDS BELOW 12,000 FEET WITH NO
SIGNIFICANT WEATHER AND/OR OBSTRUCTIONS TO VISIBILITY.

OHZ001>008-015>018-024>027-034-035-043-044-261100-
   NORTHWEST OHIO
  
CITY           SKY/WX    TMP DP  RH WIND       PRES   REMARKS
DEFIANCE       CLEAR     14   4  64 N7        29.92S WCI   4          
FINDLAY        CLOUDY    17   9  70 N15       29.86R WCI   2          
TOLEDO EXPRESS PTCLDY    14   4  64 N8        29.91S WCI   3          
TOLEDO EXEC    PTCLDY    16   6  65 NE10      29.91F WCI   4          
LIMA           MOCLDY    17  10  74 N14       29.84S WCI   3          
$$
 
OHZ009>014-019>023-028>033-038-089-261100-
   NORTHEAST OHIO
  
CITY           SKY/WX    TMP DP  RH WIND       PRES   REMARKS
CLE-HOPKINS    LGT SNOW  19  15  84 NE14      29.84S WCI   6          
CLE-LAKEFRONT  LGT SNOW  20  14  77 NE9       29.82F WCI   9          
CUY CO. ARPT   NOT AVBL                                               
LORAIN-ELYRIA  LGT SNOW  19  14  81 NE16      29.83S WCI   4          
ASHTABULA      FLURRIES  16   9  74 NE6       29.81F WCI   7          
AKRON-CANTON   LGT SNOW  20  15  81 N14       29.74F VSB 1   WCI   7  
WOOSTER        LGT SNOW  19  16  88 N10       29.76F FOG     WCI   7  
MANSFIELD      LGT SNOW  18  15  88 N14       29.76F FOG     WCI   4  
YOUNGSTOWN     LGT SNOW  18  15  88 N10       29.75F FOG     WCI   6  
$$
 
OHZ042-051>053-060>062-070>072-077>081-261100-
  SOUTHWEST OHIO
  
CITY           SKY/WX    TMP DP  RH WIND       PRES   REMARKS
CINC-COVINGTON CLOUDY    23  18  81 N14G25    29.79R WCI  11          
CINC-LUNKEN    CLOUDY    23  19  85 N16G24    29.83R WCI  10          
HAMILTON       CLOUDY    21  16  81 N14G20    29.84R WCI   8          
DAYTON         CLOUDY    18  14  84 N15       29.81R WCI   4          
WRIGHT-PAT AFB FLURRIES  19  16  86 N13       29.80R WCI   7          
DAYTON GENERAL CLOUDY    20  16  84 N16G23    29.78R WCI   6          
WILMINGTON     LGT SNOW  21  18  88 N15       29.75R FOG     WCI   8  
$$

OHZ036-037-039>041-045>050-054>059-063>069-073>076-082>088-261100-
  CENTRAL AND SOUTHEAST OHIO
  
CITY           SKY/WX    TMP DP  RH WIND       PRES   REMARKS
COLUMBUS       LGT SNOW  22  18  85 N12       29.74S FOG     WCI  10  
OSU AIRPORT    LGT SNOW  21  17  84 N13       29.75S FOG     WCI   9  
BOLTON FIELD     N/A     22  19  91 N13       29.75R WCI  10          
RICKENBACK AFB LGT SNOW  23  21  90 N12G17    29.73S WCI  12          
NEWARK         LGT SNOW  23  19  85 N9        29.72S FOG     WCI  13  
MARION         LGT SNOW  19  14  81 N16       29.79S WCI   4          
LANCASTER      LGT SNOW  25  21  85 N10       29.72S FOG     WCI  15  
ZANESVILLE     LGT SNOW  23  19  85 N8        29.72R FOG     WCI  14  
NEW PHILLY     CLOUDY    22  17  81 N7        29.75S HAZE    WCI  13  
$$


440 
ASUS41 KCLE 261010
RWRCLE
OHIO REGIONAL WEATHER ROUNDUP
NATIONAL WEATHER SERVICE CLEVELAND, OH
500 AM EST MON JAN 26 2015

NOTE: "FAIR" INDICATES FEW OR NO CLOUDS BELOW 12,000 FEET WITH NO
SIGNIFICANT WEATHER AND/OR OBSTRUCTIONS TO VISIBILITY.

OHZ001>008-015>018-024>027-034-035-043-044-261100-
   NORTHWEST OHIO
  
CITY           SKY/WX    TMP DP  RH WIND       PRES   REMARKS
DEFIANCE       CLEAR     14   4  64 N7        29.92S WCI   4          
FINDLAY        CLOUDY    17   9  70 N15       29.86R WCI   2          
TOLEDO EXPRESS PTCLDY    14   4  64 N8        29.91S WCI   3          
TOLEDO EXEC    PTCLDY    16   6  65 NE10      29.91F WCI   4          
LIMA           MOCLDY    17  10  74 N14       29.84S WCI   3          
$$

OHZ009>014-019>023-028>033-038-089-261100-
   NORTHEAST OHIO
  
CITY           SKY/WX    TMP DP  RH WIND       PRES   REMARKS
CLE-HOPKINS    LGT SNOW  19  15  84 NE14      29.84S WCI   6          
CLE-LAKEFRONT  LGT SNOW  20  14  77 NE9       29.82F WCI   9          
CUY CO. ARPT   NOT AVBL                                               
LORAIN-ELYRIA  LGT SNOW  19  14  81 NE16      29.83S WCI   4          
ASHTABULA      FLURRIES  16   9  74 NE6       29.81F WCI   7          
AKRON-CANTON   LGT SNOW  20  15  81 N14       29.74F VSB 1   WCI   7  
WOOSTER        LGT SNOW  19  16  88 N10       29.76F FOG     WCI   7  
MANSFIELD      LGT SNOW  18  15  88 N14       29.76F FOG     WCI   4  
YOUNGSTOWN     LGT SNOW  18  15  88 N10       29.75F FOG     WCI   6  
$$

OHZ042-051>053-060>062-070>072-077>081-261100-
  SOUTHWEST OHIO
  
CITY           SKY/WX    TMP DP  RH WIND       PRES   REMARKS
CINC-COVINGTON CLOUDY    23  18  81 N14G25    29.79R WCI  11          
CINC-LUNKEN    CLOUDY    23  19  85 N16G24    29.83R WCI  10          
HAMILTON       CLOUDY    21  16  81 N14G20    29.84R WCI   8          
DAYTON         CLOUDY    18  14  84 N15       29.81R WCI   4          
WRIGHT-PAT AFB FLURRIES  19  16  86 N13       29.80R WCI   7          
DAYTON GENERAL CLOUDY    20  16  84 N16G23    29.78R WCI   6          
WILMINGTON     LGT SNOW  21  18  88 N15       29.75R FOG     WCI   8  
$$

OHZ036-037-039>041-045>050-054>059-063>069-073>076-082>088-261100-
  CENTRAL AND SOUTHEAST OHIO
  
CITY           SKY/WX    TMP DP  RH WIND       PRES   REMARKS
COLUMBUS       LGT SNOW  22  18  85 N12       29.74S FOG     WCI  10  
OSU AIRPORT    LGT SNOW  21  17  84 N13       29.75S FOG     WCI   9  
BOLTON FIELD     N/A     22  19  91 N13       29.75R WCI  10          
RICKENBACK AFB LGT SNOW  23  21  90 N12G17    29.73S WCI  12          
NEWARK         LGT SNOW  23  19  85 N9        29.72S FOG     WCI  13  
MARION         LGT SNOW  19  14  81 N16       29.79S WCI   4          
LANCASTER      LGT SNOW  25  21  85 N10       29.72S FOG     WCI  15  
ZANESVILLE     LGT SNOW  23  19  85 N8        29.72R FOG     WCI  14  
NEW PHILLY     CLOUDY    22  17  81 N7        29.75S HAZE    WCI  13  
$$

Return to Home page


Western Regional Climate Center, wrcc@dri.edu